• In Portugal
  • List of Countries
  • For 7 days
  • Water Temperature
  • Satellite Maps
  • Weather Map
  • Weather Widgets
  • user-avatar
    Login

    Hourly Weather Djelfa

    Today, 11 December, Monday

    Time Temperature Precipitation Wind Pressure Humidity
    00:00 +6°C° 0 mm 4 mps 662 mmHg 73%
    01:00 +6°C° 0 mm 4 mps 661 mmHg 74%
    02:00 +5°C° 0 mm 4 mps 661 mmHg 74%
    03:00 +5°C° 0 mm 4 mps 660 mmHg 75%
    04:00 +5°C° 0 mm 4 mps 660 mmHg 75%
    05:00 +5°C° 0 mm 4 mps 660 mmHg 75%
    06:00 +4°C° 0 mm 4 mps 660 mmHg 76%
    07:00 +6°C° 0 mm 5 mps 660 mmHg 68%
    08:00 +7°C° 0 mm 6 mps 660 mmHg 61%
    09:00 +8°C° 0 mm 7 mps 660 mmHg 53%
    10:00 +10°C° 0 mm 8 mps 660 mmHg 46%
    11:00 +11°C° 0 mm 9 mps 660 mmHg 38%
    12:00 +13°C° 0 mm 10 mps 660 mmHg 31%
    13:00 +13°C° 0 mm 10 mps 659 mmHg 30%
    14:00 +13°C° 0 mm 11 mps 659 mmHg 28%
    15:00 +13°C° 0 mm 11 mps 658 mmHg 27%
    16:00 +12°C° 0 mm 10 mps 658 mmHg 30%
    17:00 +11°C° 0 mm 9 mps 658 mmHg 33%
    18:00 +9°C° 0 mm 8 mps 657 mmHg 35%
    19:00 +9°C° 0 mm 7 mps 658 mmHg 39%
    20:00 +8°C° 0 mm 7 mps 658 mmHg 43%
    21:00 +8°C° 0 mm 6 mps 658 mmHg 47%
    22:00 +8°C° 0 mm 6 mps 658 mmHg 49%
    23:00 +7°C° 0 mm 6 mps 658 mmHg 51%

    Tomorrow, 12 December, Tuesday

    Time Temperature Precipitation Wind Pressure Humidity
    00:00 +7°C° 0 mm 6 mps 658 mmHg 53%
    01:00 +7°C° 0 mm 5 mps 658 mmHg 53%
    02:00 +6°C° 0 mm 5 mps 658 mmHg 53%
    03:00 +6°C° 0 mm 4 mps 658 mmHg 54%
    04:00 +6°C° 0 mm 4 mps 658 mmHg 55%
    05:00 +5°C° 0 mm 3 mps 659 mmHg 55%
    06:00 +5°C° 0 mm 3 mps 659 mmHg 56%
    07:00 +7°C° 0 mm 3 mps 660 mmHg 53%
    08:00 +8°C° 0 mm 3 mps 660 mmHg 50%
    09:00 +7°C° 0 mm 4 mps 661 mmHg 47%
    10:00 +8°C° 0 mm 4 mps 661 mmHg 44%
    11:00 +10°C° 0 mm 4 mps 662 mmHg 41%
    12:00 +11°C° 0 mm 4 mps 662 mmHg 37%
    13:00 +10°C° 0 mm 5 mps 662 mmHg 37%
    14:00 +10°C° 0 mm 5 mps 662 mmHg 36%
    15:00 +12°C° 0 mm 5 mps 662 mmHg 36%
    16:00 +11°C° 0 mm 4 mps 662 mmHg 39%
    17:00 +10°C° 0 mm 3 mps 663 mmHg 43%
    18:00 +9°C° 0 mm 2 mps 663 mmHg 46%
    19:00 +8°C° 0 mm 2 mps 664 mmHg 49%
    20:00 +8°C° 0 mm 2 mps 664 mmHg 52%
    21:00 +8°C° 0 mm 1 mps 665 mmHg 55%
    22:00 +8°C° 0.1 mm 1 mps 665 mmHg 57%
    23:00 +7°C° 0.1 mm 1 mps 665 mmHg 60%

    Day after tomorrow, 13 December, Wednesday

    Time Temperature Precipitation Wind Pressure Humidity
    00:00 +7°C° 0.1 mm 1 mps 665 mmHg 62%
    01:00 +7°C° 0 mm 1 mps 666 mmHg 66%
    02:00 +6°C° 0 mm 2 mps 666 mmHg 69%
    03:00 +5°C° 0 mm 2 mps 666 mmHg 72%
    04:00 +5°C° 0 mm 2 mps 666 mmHg 75%
    05:00 +5°C° 0 mm 2 mps 666 mmHg 79%
    06:00 +4°C° 0 mm 2 mps 667 mmHg 82%
    07:00 +6°C° 0 mm 1 mps 667 mmHg 78%
    08:00 +7°C° 0 mm 1 mps 668 mmHg 74%
    09:00 +7°C° 0 mm 1 mps 668 mmHg 71%
    10:00 +9°C° 0 mm 1 mps 669 mmHg 65%
    11:00 +9°C° 0 mm 2 mps 669 mmHg 59%
    12:00 +10°C° 0 mm 2 mps 669 mmHg 53%
    13:00 +10°C° 0 mm 2 mps 669 mmHg 53%
    14:00 +10°C° 0 mm 2 mps 669 mmHg 52%
    15:00 +12°C° 0 mm 2 mps 668 mmHg 51%
    16:00 +9°C° 0 mm 2 mps 668 mmHg 57%
    17:00 +9°C° 0 mm 1 mps 668 mmHg 62%
    18:00 +8°C° 0 mm 1 mps 668 mmHg 67%
    19:00 +8°C° 0 mm 1 mps 669 mmHg 70%
    20:00 +7°C° 0 mm 1 mps 669 mmHg 73%
    21:00 +6°C° 0 mm 0 mps 669 mmHg 76%
    22:00 +5°C° 0 mm 0 mps 669 mmHg 78%
    23:00 +6°C° 0 mm 1 mps 669 mmHg 79%

    14 December, Thursday

    Time Temperature Precipitation Wind Pressure Humidity
    00:00 +6°C° 0 mm 1 mps 669 mmHg 80%
    01:00 +6°C° 0 mm 1 mps 669 mmHg 79%
    02:00 +6°C° 0 mm 1 mps 668 mmHg 79%
    03:00 +6°C° 0 mm 1 mps 668 mmHg 78%
    04:00 +5°C° 0 mm 1 mps 668 mmHg 77%
    05:00 +4°C° 0 mm 2 mps 668 mmHg 76%
    06:00 +4°C° 0 mm 2 mps 668 mmHg 74%
    07:00 +6°C° 0 mm 2 mps 669 mmHg 65%
    08:00 +8°C° 0 mm 2 mps 669 mmHg 56%
    09:00 +9°C° 0 mm 2 mps 670 mmHg 46%
    10:00 +12°C° 0 mm 2 mps 670 mmHg 41%
    11:00 +12°C° 0 mm 3 mps 670 mmHg 35%
    12:00 +14°C° 0 mm 3 mps 670 mmHg 29%
    13:00 +14°C° 0 mm 4 mps 670 mmHg 28%
    14:00 +14°C° 0 mm 4 mps 669 mmHg 27%
    15:00 +14°C° 0 mm 4 mps 669 mmHg 25%
    16:00 +13°C° 0 mm 4 mps 668 mmHg 28%
    17:00 +11°C° 0 mm 3 mps 668 mmHg 31%
    18:00 +10°C° 0 mm 3 mps 668 mmHg 34%
    19:00 +9°C° 0 mm 3 mps 667 mmHg 35%
    20:00 +9°C° 0 mm 2 mps 667 mmHg 37%
    21:00 +8°C° 0 mm 2 mps 667 mmHg 38%
    22:00 +8°C° 0 mm 2 mps 667 mmHg 38%
    23:00 +8°C° 0 mm 2 mps 666 mmHg 38%

    15 December, Friday

    Time Temperature Precipitation Wind Pressure Humidity
    00:00 +7°C° 0 mm 3 mps 666 mmHg 38%
    01:00 +7°C° 0 mm 3 mps 666 mmHg 38%
    02:00 +7°C° 0 mm 3 mps 665 mmHg 38%
    03:00 +7°C° 0 mm 3 mps 665 mmHg 38%
    04:00 +7°C° 0 mm 3 mps 665 mmHg 38%
    05:00 +5°C° 0 mm 3 mps 665 mmHg 38%
    06:00 +5°C° 0 mm 3 mps 664 mmHg 37%
    07:00 +8°C° 0 mm 3 mps 665 mmHg 34%
    08:00 +8°C° 0 mm 4 mps 665 mmHg 31%
    09:00 +10°C° 0 mm 5 mps 666 mmHg 28%
    10:00 +13°C° 0 mm 5 mps 666 mmHg 24%
    11:00 +15°C° 0 mm 5 mps 665 mmHg 21%
    12:00 +17°C° 0 mm 5 mps 665 mmHg 18%
    13:00 +16°C° 0 mm 5 mps 664 mmHg 19%
    14:00 +17°C° 0 mm 4 mps 664 mmHg 20%
    15:00 +17°C° 0 mm 4 mps 663 mmHg 20%
    16:00 +14°C° 0 mm 3 mps 663 mmHg 24%
    17:00 +13°C° 0 mm 3 mps 662 mmHg 27%
    18:00 +12°C° 0 mm 2 mps 662 mmHg 31%
    19:00 +12°C° 0 mm 2 mps 662 mmHg 33%
    20:00 +10°C° 0 mm 2 mps 662 mmHg 36%
    21:00 +9°C° 0 mm 2 mps 661 mmHg 38%
    22:00 +9°C° 0 mm 2 mps 661 mmHg 42%
    23:00 +9°C° 0 mm 2 mps 661 mmHg 46%

    16 December, Saturday

    Time Temperature Precipitation Wind Pressure Humidity
    00:00 +9°C° 0 mm 3 mps 661 mmHg 49%
    01:00 +8°C° 0 mm 3 mps 660 mmHg 59%
    02:00 +7°C° 0 mm 4 mps 660 mmHg 68%
    03:00 +7°C° 0 mm 4 mps 659 mmHg 77%
    04:00 +7°C° 0.1 mm 4 mps 659 mmHg 80%
    05:00 +6°C° 0.1 mm 4 mps 659 mmHg 83%
    06:00 +6°C° 0.1 mm 4 mps 659 mmHg 87%
    07:00 +7°C° 0.5 mm 4 mps 659 mmHg 87%
    08:00 +7°C° 0.5 mm 5 mps 660 mmHg 87%
    09:00 +7°C° 0.5 mm 6 mps 660 mmHg 88%
    10:00 +8°C° 0.1 mm 7 mps 660 mmHg 82%
    11:00 +8°C° 0.1 mm 7 mps 660 mmHg 77%
    12:00 +9°C° 0.1 mm 8 mps 661 mmHg 71%
    13:00 +8°C° 0 mm 9 mps 661 mmHg 67%
    14:00 +8°C° 0 mm 9 mps 661 mmHg 63%
    15:00 +8°C° 0 mm 10 mps 661 mmHg 60%
    16:00 +7°C° 0 mm 9 mps 662 mmHg 64%
    17:00 +5°C° 0 mm 8 mps 663 mmHg 69%
    18:00 +4°C° 0 mm 8 mps 663 mmHg 74%
    19:00 +3°C° 0 mm 7 mps 664 mmHg 77%
    20:00 +3°C° 0 mm 6 mps 665 mmHg 80%
    21:00 +2°C° 0 mm 5 mps 665 mmHg 83%
    22:00 +3°C° 0 mm 4 mps 665 mmHg 85%
    23:00 +1°C° 0 mm 4 mps 665 mmHg 88%
    Show more